Location: Bergheim
(50.9593°N, 6.6400°E)
Time: 03:05:57
(UTC+01:00)

ISS - Pass Details

Date: 07 October 2020
Orbit: 417 x 420 km, 51.6° (Epoch: 25 October)

Event Time Altitude Azimuth Distance (km) Brightness Sun altitude
Rises 19:32:36 0° 283° (WNW) 2,369 1.9 -6.4°
Reaches altitude 10° 19:35:01 10° 267° (W) 1,502 0.9 -6.8°
Maximum altitude 19:37:37 21° 216° (SW) 1,005 -1.3 -7.2°
Drops below altitude 10° 19:40:13 10° 166° (SSE) 1,496 -1.1 -7.6°
Sets 19:42:38 0° 149° (SSE) 2,357 -0.3 -8.0°
